15min,AgWx,beryljct,423,12DEC2018:00:00:00,26.9,12.85,23.9,23.4,23.3,23.5,23.2,95,95,95,0.407,22.1,22.2,21.9,1.776,0.8,356,5.6,2.7,-0.00016,-0.00023,34.6,36.0,22,0,0,35.7,8.81,0.00,0.00
15min,AgWx,beryljct,423,12DEC2018:00:15:00,26.9,12.83,24.0,23.3,23.4,23.5,23.2,95,95,95,0.405,22.1,22.3,21.9,3.99,1.5,352,14,4.0,-0.00013,-0.00018,34.6,36.0,22,0,0,35.6,8.81,0.00,0.00
15min,AgWx,beryljct,423,12DEC2018:00:30:00,26.9,12.68,23.8,23.1,23.3,23.5,23.1,95,95,95,0.401,22.0,22.2,21.8,3.135,3.6,318,19,5.3,-0.00009,-0.00010,34.6,36.0,22,0,0,35.6,8.81,0.00,0.00
15min,AgWx,beryljct,423,12DEC2018:00:45:00,26.7,12.79,23.9,23.2,23.3,23.4,23.1,95,95,95,0.402,22.0,22.2,21.8,2.411,3.3,304,29,5.8,-0.00009,-0.00011,34.5,36.0,22,0,0,35.5,8.82,0.00,0.00
15min,AgWx,beryljct,423,12DEC2018:01:00:00,26.7,12.81,23.9,23.2,23.3,23.5,23.2,95,95,95,0.402,22.1,22.3,21.9,2.346,2.4,259,76,4.7,-0.00011,-0.00014,34.5,36.0,22,0,0,35.5,8.81,0.00,0.00
15min,AgWx,beryljct,423,12DEC2018:01:15:00,26.6,12.8,23.9,23.4,23.3,23.5,23.2,95,95,95,0.406,22.1,22.2,21.9,0,1.5,199,27,3.9,-0.00013,-0.00018,34.5,36.0,22,0,0,35.7,8.82,0.00,0.00
15min,AgWx,beryljct,423,12DEC2018:01:30:00,26.6,12.8,24.0,23.3,23.4,23.6,23.2,95,95,95,0.404,22.1,22.4,21.9,0,1.2,171,39,3.3,-0.00014,-0.00019,34.4,36.0,22,0,0,35.7,8.81,0.00,0.00
15min,AgWx,beryljct,423,12DEC2018:01:45:00,26.6,12.8,24.0,23.5,23.4,23.6,23.3,95,95,95,0.408,22.2,22.4,22.0,2.85,0.5,71,66,2.9,-0.00017,-0.00025,34.4,36.0,22,0,0,35.6,8.82,0.00,0.00
15min,AgWx,beryljct,423,12DEC2018:02:00:00,26.6,12.78,23.9,23.2,23.4,23.7,23.2,95,95,95,0.403,22.1,22.4,21.9,0,1.9,243,18,4.4,-0.00012,-0.00016,34.4,36.0,22,0,0,35.6,8.82,0.00,0.00
15min,AgWx,beryljct,423,12DEC2018:02:15:00,26.6,12.77,23.7,23.0,23.2,23.4,23.0,95,95,95,0.399,21.9,22.1,21.7,3.332,2.3,256,35,4.6,-0.00011,-0.00014,34.4,36.0,22,0,0,35.5,8.82,0.00,0.00
15min,AgWx,beryljct,423,12DEC2018:02:30:00,26.5,12.62,23.4,22.8,22.9,23.0,22.8,95,95,95,0.396,21.6,21.7,21.5,2.609,2.3,232,75,5.3,-0.00011,-0.00014,34.3,36.0,22,0,0,35.8,8.82,0.00,0.00
15min,AgWx,beryljct,423,12DEC2018:02:45:00,26.3,12.61,23.0,22.2,22.5,22.8,22.1,94,95,94,0.384,21.1,21.5,20.7,3.266,3.2,154,7.2,4.5,-0.00009,-0.00011,34.3,36.0,22,0,0,35.5,8.82,0.00,0.00
15min,AgWx,beryljct,423,12DEC2018:03:00:00,26.0,12.76,22.7,22.1,22.2,22.4,22.0,94,95,94,0.383,20.8,21.0,20.5,3.332,2.2,163,20,5.3,-0.00011,-0.00014,34.3,35.9,22,0,0,35.6,8.82,0.00,0.00
15min,AgWx,beryljct,423,12DEC2018:03:15:00,25.8,12.74,22.5,22.0,22.0,22.1,21.9,94,94,94,0.381,20.6,20.7,20.4,3.529,1.4,208,27,3.5,-0.00013,-0.00017,34.3,35.9,22,0,0,35.5,8.82,0.00,0.00
15min,AgWx,beryljct,423,12DEC2018:03:30:00,25.6,12.72,22.4,21.8,21.9,22.1,21.7,94,94,94,0.376,20.4,20.7,20.3,5.963,4.1,173,11,6.0,-0.00008,-0.00009,34.3,35.9,22,0,0,35.5,8.82,0.00,0.00
15min,AgWx,beryljct,423,12DEC2018:03:45:00,25.5,12.7,22.8,22.5,22.2,22.6,21.7,94,95,94,0.390,20.8,21.2,20.2,6.467,6.1,157,7.5,8.0,-0.00005,-0.00006,34.2,35.9,22,0,0,35.5,8.82,0.00,0.00
15min,AgWx,beryljct,423,12DEC2018:04:00:00,25.5,12.71,23.1,22.4,22.6,22.7,22.4,94,95,94,0.388,21.2,21.4,21.0,2.938,3.8,213,26,7.1,-0.00008,-0.00009,34.2,35.9,22,0,0,35.6,8.82,0.00,0.00
15min,AgWx,beryljct,423,12DEC2018:04:15:00,25.4,12.71,22.8,22.4,22.3,22.5,22.2,94,95,94,0.387,20.9,21.1,20.7,3.113,3.5,190,17,4.8,-0.00009,-0.00010,34.2,35.9,22,0,0,35.6,8.82,0.00,0.00
15min,AgWx,beryljct,423,12DEC2018:04:30:00,25.4,12.67,23.1,22.7,22.6,22.7,22.4,94,95,94,0.392,21.2,21.4,21.0,7.125,4.0,321,53,7.7,-0.00008,-0.00009,34.2,35.9,22,0,0,35.3,8.82,0.00,0.00
15min,AgWx,beryljct,423,12DEC2018:04:45:00,25.5,12.69,23.0,22.4,22.6,22.8,22.4,94,95,94,0.386,21.2,21.4,20.9,4.056,5.1,318,10,9.1,-0.00007,-0.00007,34.1,35.9,22,0,0,35.8,8.82,0.00,0.00
15min,AgWx,beryljct,423,12DEC2018:05:00:00,25.4,12.56,22.9,22.3,22.4,22.5,22.3,94,94,94,0.385,21.0,21.2,20.9,1.82,2.4,339,16,4.8,-0.00011,-0.00013,34.1,35.9,22,0,0,35.7,8.82,0.00,0.00
15min,AgWx,beryljct,423,12DEC2018:05:15:00,25.3,12.69,22.8,22.2,22.3,22.4,22.1,94,94,94,0.384,20.8,21.0,20.7,1.425,2.0,91,5.6,4.1,-0.00011,-0.00014,34.1,35.9,22,0,0,35.7,8.82,0.00,0.00
15min,AgWx,beryljct,423,12DEC2018:05:30:00,25.3,12.68,22.7,22.1,22.2,22.4,22.0,94,94,94,0.381,20.7,21.0,20.5,1.25,1.3,89,7.1,2.5,-0.00013,-0.00018,34.1,35.8,22,0,0,35.7,8.82,0.00,0.00
15min,AgWx,beryljct,423,12DEC2018:05:45:00,25.1,12.66,22.5,22.0,22.1,22.2,22.0,94,94,94,0.380,20.6,20.8,20.5,0.614,0.9,106,3.0,2.7,-0.00015,-0.00021,34.1,35.8,22,0,0,35.5,8.82,0.00,0.00
15min,AgWx,beryljct,423,12DEC2018:06:00:00,25.0,12.67,22.6,22.1,22.1,22.2,22.0,94,94,94,0.383,20.7,20.9,20.5,3.793,2.0,138,17,4.2,-0.00012,-0.00015,34.1,35.8,22,0,0,35.6,8.82,0.00,0.00
15min,AgWx,beryljct,423,12DEC2018:06:15:00,24.9,12.66,22.7,22.2,22.2,22.3,22.1,94,94,94,0.384,20.7,20.9,20.6,3.595,3.3,160,13,4.2,-0.00009,-0.00010,34.1,35.8,22,0,0,35.5,8.82,0.00,0.00
15min,AgWx,beryljct,423,12DEC2018:06:30:00,24.7,12.67,22.7,22.1,22.2,22.3,22.1,94,94,94,0.381,20.7,20.9,20.6,1.754,2.4,153,12,5.1,-0.00010,-0.00013,34.0,35.8,22,0,0,35.6,8.82,0.00,0.00
15min,AgWx,beryljct,423,12DEC2018:06:45:00,24.6,12.66,22.7,22.1,22.2,22.4,22.1,94,94,94,0.382,20.8,21.0,20.6,1.732,3.0,151,7.2,4.6,-0.00009,-0.00011,34.0,35.8,22,0,0,35.5,8.82,0.00,0.00
15min,AgWx,beryljct,423,12DEC2018:07:00:00,24.2,12.65,22.3,21.7,21.9,22.1,21.6,94,94,94,0.374,20.4,20.7,20.1,2.105,0.5,163,0.3,2.1,0.00001,0.00001,34.0,35.8,22,0,0,35.7,8.82,0.00,0.00
15min,AgWx,beryljct,423,12DEC2018:07:15:00,23.6,12.51,21.7,21.2,21.3,21.7,21.1,94,94,93,0.365,19.7,20.2,19.5,0.197,0.7,163,0.1,2.2,0.00001,0.00002,34.0,35.8,22,0,0,35.4,8.82,0.00,0.00
15min,AgWx,beryljct,423,12DEC2018:07:30:00,23.2,12.63,21.3,20.5,20.9,21.5,20.4,93,94,93,0.353,19.3,20.1,18.7,0.438,1.5,309,36,3.9,0.00002,0.00003,34.0,35.8,22,0,0,35.7,8.82,0.00,0.00
15min,AgWx,beryljct,423,12DEC2018:07:45:00,22.6,12.65,21.4,20.7,20.8,21.3,20.4,94,94,93,0.356,19.3,19.8,18.8,0.877,0.6,320,3.6,2.2,0.00002,0.00002,34.0,35.8,22,3,0,35.6,8.82,0.00,0.00
15min,AgWx,beryljct,423,12DEC2018:08:00:00,22.3,12.65,21.0,21.0,20.5,21.0,20.2,93,94,93,0.364,18.8,19.6,18.5,0.68,1.4,297,18,2.9,0.00005,0.00006,33.9,35.8,22,11,0,35.5,8.82,0.00,0.00
15min,AgWx,beryljct,423,12DEC2018:08:15:00,22.3,12.97,22.7,22.7,21.9,22.7,21.0,94,95,94,0.393,20.6,21.3,19.5,0.921,0.9,273,7.0,1.7,0.00015,0.00016,33.9,35.7,22,41,0,35.8,8.82,0.00,0.00
15min,AgWx,beryljct,423,12DEC2018:08:30:00,23.6,13.54,26.9,29.0,25.8,29.0,22.7,96,97,95,0.526,24.8,28.3,21.4,3.705,2.7,263,4.6,4.4,0.00028,0.00031,33.9,35.7,22,106,0,36.1,8.82,0.00,0.00
15min,AgWx,beryljct,423,12DEC2018:08:45:00,26.6,14.41,30.6,30.8,30.1,30.8,29.1,97,97,97,0.567,29.4,30.2,28.4,0.833,3.1,272,9.2,4.5,0.00039,0.00042,33.9,35.7,22,134,0,38.9,8.82,0.00,0.00
15min,AgWx,beryljct,423,12DEC2018:09:00:00,29.6,14.78,31.8,33.3,31.7,33.3,30.5,97,97,97,0.625,31.0,32.6,29.8,7.278,4.3,250,8.9,7.6,0.00050,0.00055,33.9,35.7,22,178,0,42.3,8.81,0.00,0.00
15min,AgWx,beryljct,423,12DEC2018:09:15:00,32.6,14.79,35.5,34.7,34.0,34.7,33.3,97,97,96,0.656,33.3,33.8,32.6,6.818,7.6,264,7.5,9.4,0.00058,0.00064,33.9,35.7,22,218,0,43.3,8.81,0.00,0.00
15min,AgWx,beryljct,423,12DEC2018:09:30:00,35.1,14.66,39.4,36.2,35.4,36.2,34.7,96,96,95,0.685,34.3,34.9,33.7,7.651,6.6,257,11,8.7,0.00072,0.00080,33.8,35.7,22,246,0,45.4,8.81,0.00,0.00
15min,AgWx,beryljct,423,12DEC2018:09:45:00,37.3,14.6,39.5,36.3,36.0,37.0,35.0,95,96,93,0.695,34.6,35.6,33.5,3.683,5.6,287,27,8.4,0.00089,0.00097,33.8,35.7,22,285,0,47.3,8.81,0.00,0.00
15min,AgWx,beryljct,423,12DEC2018:10:00:00,39.8,14.69,44.4,44.9,40.1,45.0,36.3,83,96,51,0.514,34.9,37.3,27.8,6.993,7.6,237,12,12.5,0.00119,0.00142,33.8,35.7,22,325,0,50.6,8.81,0.00,0.00
15min,AgWx,beryljct,423,12DEC2018:10:15:00,42.0,14.58,41.5,42.0,41.6,45.3,39.0,61,77,40,0.526,28.8,32.3,22.5,1.776,2.7,11,63,7.8,0.00153,0.00178,33.8,35.7,22,357,0,53.1,8.81,0.00,0.00
15min,AgWx,beryljct,423,12DEC2018:10:30:00,43.9,14.64,45.7,46.0,45.0,46.1,42.2,44,59,38,0.436,24.3,29.5,21.7,10.28,8.2,246,11,11.5,0.00204,0.00272,33.8,35.7,22,387,0,53.6,8.81,0.00,0.00
15min,AgWx,beryljct,423,12DEC2018:10:45:00,45.4,14.52,46.9,47.1,46.5,47.1,45.9,40,44,37,0.408,23.4,25.2,21.9,12.71,8.0,268,19,12.7,0.00225,0.00300,33.8,35.7,22,413,0,53.7,8.81,0.00,0.00
15min,AgWx,beryljct,423,12DEC2018:11:00:00,46.8,14.47,47.9,48.3,47.5,48.3,46.9,37,39,35,0.434,22.4,23.7,20.9,9.19,10.6,288,13,17.1,0.00253,0.00349,33.8,35.6,22,438,0,53.8,8.81,0.00,0.00
15min,AgWx,beryljct,423,12DEC2018:11:15:00,48.1,14.44,49.0,48.9,48.7,49.4,48.3,36,38,33,0.439,22.7,24.5,21.1,9.54,11.3,281,24,15.6,0.00271,0.00375,33.8,35.6,22,460,0,54.8,8.81,0.00,0.00
15min,AgWx,beryljct,423,12DEC2018:11:30:00,49.1,14.45,48.9,49.3,48.6,49.4,48.3,36,39,33,0.403,23.0,24.7,21.1,14.69,9.3,354,21,18.0,0.00259,0.00350,33.7,35.6,22,452,0,55.6,8.81,0.00,0.00
15min,AgWx,beryljct,423,12DEC2018:11:45:00,49.7,14.01,49.4,49.5,49.1,49.5,48.8,34,36,33,0.423,22.3,23.6,21.2,18.52,18.7,330,9.1,23.6,0.00298,0.00438,33.7,35.6,22,449,0,53.5,8.81,0.00,0.00
15min,AgWx,beryljct,423,12DEC2018:12:00:00,50.4,14.14,49.7,49.5,49.5,49.8,49.3,35,37,33,0.440,22.7,24.1,21.7,23.46,20.1,325,10,25.5,0.00323,0.00470,33.7,35.6,22,526,0,54.4,8.80,0.00,0.00
15min,AgWx,beryljct,423,12DEC2018:12:15:00,50.7,14.02,49.3,48.8,49.1,49.5,48.8,36,38,34,0.428,23.4,24.5,22.0,22.91,21.4,332,8.3,30.0,0.00319,0.00465,33.7,35.6,22,527,0,53.2,8.80,0.00,0.01
15min,AgWx,beryljct,423,12DEC2018:12:30:00,50.6,14.03,48.1,47.2,48.0,48.8,47.2,40,43,37,0.466,24.8,25.8,23.6,18.9,19.6,340,8.5,27.1,0.00288,0.00417,33.7,35.6,22,497,0,51.7,8.80,0.00,0.00
15min,AgWx,beryljct,423,12DEC2018:12:45:00,50.1,14.01,47.4,46.8,47.2,47.8,46.7,42,44,41,0.465,25.5,26.7,24.4,13.39,15.0,355,12,22.9,0.00261,0.00367,33.7,35.6,22,474,0,50.9,8.79,0.00,0.00
15min,AgWx,beryljct,423,12DEC2018:13:00:00,49.6,14.01,47.1,47.2,46.9,47.4,46.4,42,44,41,0.465,25.0,26.0,24.1,19.66,16.1,351,12,22.4,0.00264,0.00373,33.7,35.6,22,483,0,50.1,8.79,0.00,0.00
15min,AgWx,beryljct,423,12DEC2018:13:15:00,49.6,14.03,47.4,46.9,47.2,47.5,46.7,42,43,39,0.459,25.0,25.9,23.2,16.24,20.2,339,8.9,25.3,0.00281,0.00406,33.8,35.6,22,505,0,49.9,8.79,0.00,0.00
15min,AgWx,beryljct,423,12DEC2018:13:30:00,49.4,14.02,47.1,46.5,46.9,47.3,46.4,37,42,32,0.349,21.8,25.2,18.6,25.98,21.1,330,8.6,28.1,0.00287,0.00422,33.8,35.6,22,486,0,49.4,8.79,0.00,0.00
15min,AgWx,beryljct,423,12DEC2018:13:45:00,49.1,14.11,46.6,46.1,46.3,46.6,46.0,34,35,31,0.373,19.3,20.4,17.3,18.74,19.6,336,12,25.4,0.00286,0.00421,33.9,35.6,22,476,0,48.6,8.79,0.00,0.00
15min,AgWx,beryljct,423,12DEC2018:14:00:00,48.8,14.13,45.7,44.6,45.6,46.5,44.5,33,36,30,0.306,18.2,21.2,14.7,19.23,20.1,352,13,26.3,0.00272,0.00407,34.0,35.5,22,443,0,47.3,8.79,0.00,0.00
15min,AgWx,beryljct,423,12DEC2018:14:15:00,48.1,14.04,44.5,44.1,44.3,44.7,43.9,28,31,26,0.256,13.1,15.7,11.0,22.19,22.4,355,9.0,28.4,0.00280,0.00427,34.2,35.5,22,436,0,45.9,8.79,0.00,0.00
15min,AgWx,beryljct,423,12DEC2018:14:30:00,47.5,14.04,44.1,43.9,43.8,44.1,43.4,25,26,23,0.240,10.3,11.7,8.3,20.06,22.3,339,10,26.6,0.00275,0.00426,34.4,35.5,22,406,0,45.6,8.78,0.00,0.00
15min,AgWx,beryljct,423,12DEC2018:14:45:00,47.0,14.03,44.0,43.4,43.7,43.9,43.4,24,25,23,0.231,8.8,10.0,8.0,23.26,21.3,337,9.6,29.6,0.00270,0.00418,34.5,35.5,22,386,0,45.6,8.78,0.00,0.00
15min,AgWx,beryljct,423,12DEC2018:15:00:00,46.7,14.04,43.7,43.3,43.3,43.5,43.1,25,27,24,0.244,10.1,11.7,9.0,17.32,19.9,332,8.7,27.4,0.00251,0.00390,34.7,35.6,22,356,0,45.5,8.78,0.00,0.00
15min,AgWx,beryljct,423,12DEC2018:15:15:00,46.6,14.08,43.6,43.4,43.2,43.4,43.1,26,27,25,0.259,10.7,11.7,9.9,16.66,18.2,327,7.8,22.9,0.00232,0.00363,34.9,35.6,22,321,0,45.6,8.78,0.00,0.00
15min,AgWx,beryljct,423,12DEC2018:15:30:00,46.4,14.07,43.4,43.0,43.2,43.5,43.0,26,27,25,0.245,10.9,11.9,9.9,15.26,18.3,326,8.8,22.1,0.00221,0.00352,35.0,35.6,22,285,0,45.6,8.78,0.00,0.00
15min,AgWx,beryljct,423,12DEC2018:15:45:00,46.3,14.06,43.3,42.9,43.1,43.1,42.8,27,28,26,0.255,11.6,12.6,10.8,17.47,16.3,333,7.2,20.6,0.00199,0.00319,35.2,35.6,22,248,0,45.4,8.78,0.00,0.00
15min,AgWx,beryljct,423,12DEC2018:16:00:00,46.1,14.08,42.9,42.4,42.6,42.8,42.4,27,30,26,0.270,11.2,13.1,10.3,11.14,14.4,340,9.3,19.0,0.00176,0.00287,35.3,35.6,22,210,0,44.7,8.77,0.00,0.00
15min,AgWx,beryljct,423,12DEC2018:16:15:00,45.7,14.11,42.4,41.7,42.1,42.4,41.7,27,29,25,0.253,10.6,12.5,9.2,7.848,11.1,351,13,17.0,0.00141,0.00234,35.4,35.6,22,170,0,44.4,8.77,0.00,0.00
15min,AgWx,beryljct,423,12DEC2018:16:30:00,45.3,14.11,41.8,41.1,41.5,41.9,41.0,27,28,26,0.234,10.1,11.3,9.0,8.81,10.4,356,12,13.7,0.00060,0.00070,35.5,35.7,22,134,0,43.6,8.77,0.00,0.00
15min,AgWx,beryljct,423,12DEC2018:16:45:00,44.5,14.15,40.5,39.9,40.3,41.3,39.4,29,32,26,0.239,10.7,12.1,9.1,11.25,9.3,16,9.5,13.0,0.00050,0.00060,35.6,35.7,22,97,0,42.5,8.77,0.00,0.00
15min,AgWx,beryljct,423,12DEC2018:17:00:00,43.3,13.32,39.6,38.3,39.5,40.2,38.2,29,32,28,0.248,10.1,11.3,9.5,8.92,9.0,11,7.8,11.4,0.00042,0.00052,35.7,35.7,22,37,0,40.2,8.78,0.00,0.00
15min,AgWx,beryljct,423,12DEC2018:17:15:00,41.4,13.21,37.8,36.5,37.7,38.6,36.5,33,36,30,0.260,11.2,12.4,9.9,9.25,8.6,357,9.8,11.5,0.00034,0.00042,35.7,35.8,22,9,0,36.8,8.78,0.00,0.00
15min,AgWx,beryljct,423,12DEC2018:17:30:00,39.4,13.18,35.9,35.3,35.6,36.4,35.3,37,38,36,0.262,12.0,12.6,11.7,10.79,9.7,345,5.2,12.3,0.00031,0.00038,35.7,35.8,22,4,0,35.6,8.78,0.00,0.00
15min,AgWx,beryljct,423,12DEC2018:17:45:00,37.9,13.15,35.6,34.7,35.2,35.5,34.7,38,39,37,0.268,11.9,12.5,11.5,7.103,9.7,353,12,12.4,0.00030,0.00037,35.7,35.8,22,1,0,35.6,8.78,0.00,0.00
15min,AgWx,beryljct,423,12DEC2018:18:00:00,36.4,13.13,34.3,35.0,33.8,35.0,32.3,42,48,37,0.256,12.9,14.8,11.3,3.88,6.2,15,27,9.0,0.00018,0.00024,35.7,35.9,22,0,0,35.7,8.78,0.00,0.00
15min,AgWx,beryljct,423,12DEC2018:18:15:00,35.3,13.1,34.8,33.5,34.5,35.2,33.5,39,42,37,0.273,12.0,13.1,11.2,4.406,4.4,15,16,7.8,0.00012,0.00018,35.7,35.9,22,0,0,35.5,8.78,0.00,0.00
15min,AgWx,beryljct,423,12DEC2018:18:30:00,34.0,13.08,32.0,31.5,31.7,33.5,30.5,50,56,41,0.297,15.1,17.0,12.5,4.012,2.7,49,11,4.8,-0.00001,0.00001,35.6,35.9,22,0,0,35.3,8.78,0.00,0.00
15min,AgWx,beryljct,423,12DEC2018:18:45:00,32.7,13.08,30.3,28.5,30.2,31.4,27.7,54,60,50,0.309,15.5,16.1,14.8,5.064,3.7,349,46,5.2,0.00003,0.00006,35.6,36.0,22,0,0,35.4,8.78,0.00,0.00
15min,AgWx,beryljct,423,12DEC2018:19:00:00,31.6,13.07,30.5,30.4,29.8,30.9,28.6,55,58,53,0.312,15.6,16.0,15.2,3.091,4.5,317,21,6.4,0.00005,0.00008,35.5,36.0,22,0,0,35.7,8.79,0.00,0.00
15min,AgWx,beryljct,423,12DEC2018:19:15:00,30.9,12.93,31.5,31.4,30.9,31.8,29.9,55,56,53,0.330,16.5,17.6,15.8,3.157,3.0,352,5.4,4.4,-0.00001,0.00001,35.5,36.0,22,0,0,35.7,8.78,0.00,0.00
15min,AgWx,beryljct,423,12DEC2018:19:30:00,30.7,13.05,31.8,31.3,31.3,31.7,30.8,58,59,55,0.347,18.1,18.8,16.9,5.371,4.7,360,7.3,5.9,0.00005,0.00008,35.4,36.0,22,0,0,35.5,8.79,0.00,0.00
15min,AgWx,beryljct,423,12DEC2018:19:45:00,30.2,13.02,28.4,27.7,28.4,31.2,27.1,63,66,59,0.337,17.5,18.4,17.0,4.319,3.3,337,9.6,5.9,-0.00001,-0.00000,35.4,36.0,22,0,0,35.3,8.79,0.00,0.00
15min,AgWx,beryljct,423,12DEC2018:20:00:00,29.6,13.03,29.3,28.7,28.7,29.5,27.8,64,66,63,0.350,18.2,18.8,17.3,5.459,4.8,360,21,6.5,0.00003,0.00005,35.3,36.1,22,0,0,35.8,8.79,0.00,0.00
15min,AgWx,beryljct,423,12DEC2018:20:15:00,29.3,13.02,27.7,27.3,27.3,28.5,26.9,72,73,66,0.369,19.4,19.9,18.5,9.08,7.7,29,4.1,10.2,0.00005,0.00007,35.3,36.1,22,0,0,35.2,8.79,0.00,0.00
15min,AgWx,beryljct,423,12DEC2018:20:30:00,29.1,13.01,27.9,27.2,27.4,27.6,27.2,73,74,73,0.369,20.0,20.1,19.8,9.56,9.4,29,3.9,11.0,0.00006,0.00008,35.2,36.1,22,0,0,35.6,8.79,0.00,0.00
15min,AgWx,beryljct,423,12DEC2018:20:45:00,28.8,12.87,27.6,26.7,27.1,27.3,26.7,74,75,74,0.369,19.9,20.0,19.8,5.919,8.0,38,5.4,9.8,0.00004,0.00006,35.2,36.1,22,0,0,35.5,8.80,0.00,0.00
15min,AgWx,beryljct,423,12DEC2018:21:00:00,28.3,12.97,26.8,26.2,26.3,26.8,25.9,76,76,74,0.358,19.7,19.9,19.1,3.924,4.0,24,20,5.7,-0.00003,-0.00002,35.1,36.1,22,0,0,35.6,8.80,0.00,0.00
15min,AgWx,beryljct,423,12DEC2018:21:15:00,27.5,12.97,25.6,25.2,25.2,26.2,24.8,77,78,74,0.356,18.9,19.2,18.5,4.231,3.3,320,11,4.5,-0.00005,-0.00005,35.0,36.1,22,0,0,35.5,8.80,0.00,0.00
15min,AgWx,beryljct,423,12DEC2018:21:30:00,26.9,12.97,25.8,25.8,25.2,25.8,24.8,78,79,77,0.365,19.2,19.9,18.8,3.749,3.6,348,15,5.2,-0.00004,-0.00004,35.0,36.1,22,0,0,35.6,8.80,0.00,0.00
15min,AgWx,beryljct,423,12DEC2018:21:45:00,26.6,12.95,26.6,26.0,25.9,26.3,25.6,77,78,76,0.364,19.7,19.9,19.4,4.034,5.1,19,7.2,7.1,-0.00001,-0.00000,35.0,36.1,22,0,0,35.7,8.80,0.00,0.00
15min,AgWx,beryljct,423,12DEC2018:22:00:00,26.5,12.94,26.2,25.5,25.6,26.0,25.3,77,78,76,0.361,19.4,19.6,19.2,5.7,4.8,11,5.8,6.5,-0.00002,-0.00001,34.9,36.1,22,0,0,35.6,8.80,0.00,0.00
15min,AgWx,beryljct,423,12DEC2018:22:15:00,26.5,12.94,25.6,24.4,25.1,25.6,24.4,77,78,77,0.350,19.0,19.4,18.6,6.445,6.4,6.0,6.8,7.7,0.00001,0.00002,34.9,36.1,22,0,0,35.4,8.80,0.00,0.00
15min,AgWx,beryljct,423,12DEC2018:22:30:00,26.3,12.94,24.9,24.3,24.4,24.5,24.2,78,78,78,0.345,18.5,18.7,18.3,6.357,7.1,7.1,7.3,8.2,0.00001,0.00002,34.8,36.1,22,0,0,35.6,8.81,0.00,0.00
15min,AgWx,beryljct,423,12DEC2018:22:45:00,25.8,12.78,23.8,22.4,23.5,24.2,22.4,79,80,78,0.327,17.8,18.4,17.0,2.346,2.9,343,19,7.3,-0.00006,-0.00007,34.8,36.1,22,0,0,35.7,8.81,0.00,0.00
15min,AgWx,beryljct,423,12DEC2018:23:00:00,25.0,12.9,23.2,24.0,22.4,24.0,21.7,80,81,78,0.342,17.2,18.2,16.5,6.204,3.8,341,19,7.0,-0.00004,-0.00005,34.7,36.1,22,0,0,35.5,8.81,0.00,0.00
15min,AgWx,beryljct,423,12DEC2018:23:15:00,25.0,12.9,25.2,24.3,24.6,24.8,24.1,76,78,75,0.337,18.0,18.1,17.7,6.226,6.1,1.9,7.9,7.7,0.00001,0.00002,34.7,36.1,22,0,0,35.6,8.81,0.00,0.00
15min,AgWx,beryljct,423,12DEC2018:23:30:00,25.1,12.9,25.4,24.7,24.7,25.2,24.1,75,77,74,0.336,17.9,18.0,17.7,2.718,4.1,10,11,6.0,-0.00002,-0.00002,34.6,36.1,22,0,0,35.5,8.81,0.00,0.00
15min,AgWx,bigpiney,439,12DEC2018:00:00:00,8.5,12.66,5.5,5.7,4.9,5.7,4.3,83,84,82,0.165,0.9,1.8,0.3,3.88,3.9,335,24,5.3,-0.00003,-0.00003,31.0,33.1,45,0,0,0.0,.,0.00,0.00
15min,AgWx,bigpiney,439,12DEC2018:00:15:00,8.6,12.64,6.2,6.1,5.6,6.2,5.2,82,84,82,0.167,1.5,2.1,0.9,1.929,3.7,319,30,5.3,-0.00003,-0.00003,31.0,33.0,45,0,0,0.0,.,0.00,0.00
15min,AgWx,bigpiney,439,12DEC2018:00:30:00,8.8,12.64,7.6,7.5,6.9,7.6,6.2,82,83,81,0.175,2.6,3.2,2.1,3.201,2.6,219,32,4.0,-0.00005,-0.00006,31.0,33.0,45,0,0,0.0,.,0.00,0.00
15min,AgWx,bigpiney,439,12DEC2018:00:45:00,9.2,12.64,8.6,8.1,8.0,8.4,7.5,83,84,82,0.182,3.9,4.2,3.1,3.464,3.0,184,15,4.4,-0.00004,-0.00005,31.0,33.1,45,0,0,0.0,.,0.00,0.00
15min,AgWx,bigpiney,439,12DEC2018:01:00:00,9.6,12.62,8.8,8.3,8.4,8.5,8.1,83,84,82,0.186,4.2,4.4,3.9,3.003,3.7,202,14,5.5,-0.00004,-0.00004,31.0,33.0,45,0,0,0.0,.,0.00,0.00
15min,AgWx,bigpiney,439,12DEC2018:01:15:00,9.9,12.61,8.7,8.4,8.2,8.9,7.8,83,84,81,0.180,4.1,4.6,3.5,4.691,4.2,212,12,6.3,-0.00003,-0.00003,31.0,33.1,45,0,0,0.0,.,0.00,0.00
15min,AgWx,bigpiney,439,12DEC2018:01:30:00,9.9,12.61,8.4,7.6,8.0,8.8,7.4,81,83,80,0.178,3.5,4.4,2.8,4.012,4.0,201,13,5.9,-0.00003,-0.00003,31.0,33.1,45,0,0,0.0,.,0.00,0.00
15min,AgWx,bigpiney,439,12DEC2018:01:45:00,10.0,12.6,8.5,7.4,8.0,8.4,7.3,82,83,82,0.176,3.7,4.2,3.1,0.943,2.6,196,40,4.6,-0.00005,-0.00006,31.0,33.0,45,0,0,0.0,.,0.00,0.00
15min,AgWx,bigpiney,439,12DEC2018:02:00:00,10.0,12.59,8.1,6.6,7.7,8.3,6.6,82,83,81,0.169,3.4,3.9,2.2,1.008,0.6,56,49,3.1,-0.00010,-0.00014,31.0,33.0,45,0,0,0.0,.,0.00,0.00
15min,AgWx,bigpiney,439,12DEC2018:02:15:00,10.0,12.57,6.5,5.7,6.1,6.6,5.6,83,84,82,0.165,2.1,2.8,1.4,0.899,0.7,33,73,1.9,-0.00009,-0.00013,31.0,33.1,45,0,0,0.0,.,0.00,0.00
15min,AgWx,bigpiney,439,12DEC2018:02:30:00,9.9,12.56,6.6,6.0,6.1,6.5,5.6,84,85,84,0.169,2.3,2.8,1.7,1.25,1.4,100,97,3.4,-0.00007,-0.00010,30.9,33.0,45,0,0,0.0,.,0.00,0.00
15min,AgWx,bigpiney,439,12DEC2018:02:45:00,9.9,12.57,6.4,5.9,5.9,6.3,5.7,84,85,83,0.166,2.1,2.6,1.6,0,1.0,95,37,2.1,-0.00008,-0.00011,30.9,33.0,45,0,0,0.0,.,0.00,0.00
15min,AgWx,bigpiney,439,12DEC2018:03:00:00,9.9,12.54,6.4,6.2,5.9,6.3,5.6,83,84,83,0.168,1.9,2.3,1.5,1.03,0.5,62,50,1.8,-0.00010,-0.00015,30.9,33.0,45,0,0,0.0,.,0.00,0.00
15min,AgWx,bigpiney,439,12DEC2018:03:15:00,10.0,12.55,6.8,6.4,6.3,6.5,6.1,83,84,83,0.170,2.3,2.6,2.0,2.389,0.8,1.9,40,3.0,-0.00009,-0.00013,30.9,33.0,45,0,0,0.0,.,0.00,0.00
15min,AgWx,bigpiney,439,12DEC2018:03:30:00,10.0,12.53,7.0,6.6,6.5,6.8,6.4,83,84,83,0.174,2.6,2.9,2.4,1.271,1.7,63,53,3.0,-0.00007,-0.00008,30.9,33.0,45,0,0,0.0,.,0.00,0.00
15min,AgWx,bigpiney,439,12DEC2018:03:45:00,10.1,12.52,7.5,7.1,6.9,7.1,6.6,83,84,83,0.174,2.9,3.2,2.7,3.047,1.6,114,26,3.6,-0.00007,-0.00009,30.9,33.0,45,0,0,0.0,.,0.00,0.00
15min,AgWx,bigpiney,439,12DEC2018:04:00:00,10.2,12.52,7.6,7.3,7.1,7.4,7.0,84,85,83,0.179,3.3,3.7,2.9,2.894,2.1,164,28,3.2,-0.00006,-0.00007,30.9,33.0,45,0,0,0.0,.,0.00,0.00
15min,AgWx,bigpiney,439,12DEC2018:04:15:00,10.3,12.49,8.0,7.8,7.4,7.8,7.3,84,84,84,0.182,3.6,3.9,3.4,0,1.7,213,31,3.2,-0.00007,-0.00009,30.9,33.0,45,0,0,0.0,.,0.00,0.00
15min,AgWx,bigpiney,439,12DEC2018:04:30:00,10.4,12.49,8.9,8.8,8.3,8.8,7.8,84,85,83,0.189,4.3,4.8,3.8,1.644,0.9,157,20,2.7,-0.00010,-0.00013,30.9,33.1,45,0,0,0.0,.,0.00,0.00
15min,AgWx,bigpiney,439,12DEC2018:04:45:00,10.8,12.49,9.4,9.0,8.9,9.1,8.7,83,83,82,0.191,4.7,5.0,4.4,1.096,1.4,360,50,3.4,-0.00008,-0.00011,30.9,33.0,45,0,0,0.0,.,0.00,0.00
15min,AgWx,bigpiney,439,12DEC2018:05:00:00,11.2,12.49,10.0,9.9,9.4,9.9,8.9,83,84,83,0.199,5.3,5.9,4.7,2.214,1.5,330,25,4.1,-0.00008,-0.00010,30.9,33.0,45,0,0,0.0,.,0.00,0.00
15min,AgWx,bigpiney,439,12DEC2018:05:15:00,11.7,12.49,10.5,9.9,10.0,10.2,9.8,82,83,81,0.194,5.7,6.1,5.3,2.609,3.0,316,31,5.9,-0.00005,-0.00005,30.9,33.0,45,0,0,0.0,.,0.00,0.00
15min,AgWx,bigpiney,439,12DEC2018:05:30:00,12.1,12.47,11.0,10.8,10.4,10.8,9.9,81,82,81,0.202,5.8,6.3,5.2,2.236,1.8,322,27,4.3,-0.00007,-0.00009,30.9,33.0,45,0,0,0.0,.,0.00,0.00
15min,AgWx,bigpiney,439,12DEC2018:05:45:00,12.6,12.46,11.4,10.8,10.9,11.1,10.8,82,82,81,0.204,6.4,6.6,6.2,2.433,2.2,9.1,53,3.9,-0.00006,-0.00008,30.9,33.0,45,0,0,0.0,.,0.00,0.00
15min,AgWx,bigpiney,439,12DEC2018:06:00:00,12.9,12.47,11.4,10.9,10.9,11.1,10.8,82,83,82,0.205,6.5,6.8,6.3,3.595,3.0,45,16,4.7,-0.00005,-0.00006,30.9,33.0,45,0,0,0.0,.,0.00,0.00
15min,AgWx,bigpiney,439,12DEC2018:06:15:00,13.2,12.46,11.6,11.2,11.1,11.3,10.9,83,83,82,0.210,6.8,7.2,6.3,0,1.5,93,52,3.5,-0.00008,-0.00010,30.9,33.0,45,0,0,0.0,.,0.00,0.00
15min,AgWx,bigpiney,439,12DEC2018:06:30:00,13.4,12.46,11.8,11.4,11.3,11.5,11.2,83,84,83,0.213,7.2,7.5,6.9,0.592,0.8,46,21,3.4,-0.00011,-0.00015,30.9,33.0,45,0,0,0.0,.,0.00,0.00
15min,AgWx,bigpiney,439,12DEC2018:06:45:00,13.6,12.46,11.9,11.4,11.4,11.6,11.3,84,84,83,0.213,7.4,7.7,7.2,1.556,1.1,99,40,2.6,-0.00010,-0.00013,30.9,33.1,45,0,0,0.0,.,0.00,0.00
15min,AgWx,bigpiney,439,12DEC2018:07:00:00,13.7,12.46,11.8,11.3,11.4,11.5,11.2,84,85,83,0.212,7.5,7.7,7.2,4.911,3.5,62,15,6.3,-0.00005,-0.00005,30.9,33.0,45,0,0,0.0,.,0.00,0.00
15min,AgWx,bigpiney,439,12DEC2018:07:15:00,13.7,12.45,11.7,11.2,11.2,11.3,11.1,84,84,83,0.211,7.2,7.4,7.1,3.288,3.6,56,12,5.5,-0.00004,-0.00005,30.9,33.0,45,0,0,0.0,.,0.00,0.00
15min,AgWx,bigpiney,439,12DEC2018:07:30:00,13.7,12.44,11.9,11.6,11.4,11.7,11.2,84,84,83,0.216,7.4,7.8,7.1,0.351,1.9,92,20,3.8,-0.00008,-0.00009,30.9,32.9,45,0,0,0.0,.,0.00,0.00
15min,AgWx,bigpiney,439,12DEC2018:07:45:00,13.9,12.45,12.3,12.1,11.8,12.1,11.6,83,84,83,0.218,7.6,7.8,7.4,1.425,1.1,343,45,3.4,-0.00010,-0.00013,30.9,33.0,45,1,0,0.0,.,0.00,0.00
15min,AgWx,bigpiney,439,12DEC2018:08:00:00,14.0,12.47,12.6,12.2,12.1,12.3,12.0,84,86,83,0.226,8.3,8.7,7.8,2.674,2.6,336,15,4.2,0.00003,0.00005,30.9,33.0,45,4,0,0.0,.,0.00,0.00
15min,AgWx,bigpiney,439,12DEC2018:08:15:00,14.2,12.49,12.9,12.5,12.4,12.6,12.2,86,86,86,0.232,9.1,9.3,8.7,2.148,2.5,336,7.9,4.0,0.00005,0.00007,30.9,33.0,45,8,0,0.0,.,0.00,0.00
15min,AgWx,bigpiney,439,12DEC2018:08:30:00,14.4,13.06,13.1,12.9,12.7,12.9,12.5,87,87,86,0.236,9.4,9.7,9.2,4.494,3.4,335,11,5.4,0.00002,0.00004,30.9,33.0,45,38,0,0.0,.,0.00,0.00
15min,AgWx,bigpiney,439,12DEC2018:08:45:00,14.7,15.02,13.7,13.3,13.2,13.4,12.9,86,87,86,0.239,9.9,10.1,9.6,4.669,4.3,333,8.4,6.3,0.00005,0.00009,30.9,33.0,45,87,0,0.0,.,0.00,0.00